Regional Weather Roundup
Issued by NWS Boston, MA

Home | Current Version | Previous Version | Text Only | Print | Product List | Glossary On
Versions: 1 2 3 4 5 6 7 8 9 10 11 12 13 14 15 16 17 18 19 20 21 22 23 24 25 26 27 28 29 30 31 32 33 34 35 36 37 38 39 40 41 42 43 44 45 46 47 48 49 50
000
ASUS41 KBOX 031910
RWRBOX

REGIONAL WEATHER ROUNDUP
NATIONAL WEATHER SERVICE TAUNTON MA
300 PM EDT WED JUN 03 2015

NOTE:  "FAIR" INDICATES FEW OR NO CLOUDS BELOW 12,000 FEET WITH NO
SIGNIFICANT WEATHER AND/OR OBSTRUCTIONS TO VISIBILITY.  THE FOLLOWING
OBSERVATION LOCATIONS DO NOT REPORT PRESENT WEATHER...PROVINCETOWN...
SMITHFIELD...BLOCK ISLAND...KEENE...AND OXFORD.

MAZALL-032000-
EASTERN MASSACHUSETTS

CITY           SKY/WX    TMP DP  RH WIND       PRES   REMARKS
BOSTON         PTSUNNY   54  48  80 SE10      30.25F
BEVERLY        CLOUDY    55  45  68 SE9       30.24S
LAWRENCE       CLOUDY    60  46  59 SE5       30.24F
BEDFORD        MOSUNNY   60  47  61 SE8       30.22F
BLUE HILL        N/A     57  46  66 NE8       30.23S
NORWOOD        CLOUDY    59  46  62 CALM      30.23F
MARSHFIELD     PTSUNNY   55  46  71 E7        30.27F
PLYMOUTH       CLOUDY    54  46  74 E9        30.25F
TAUNTON        CLOUDY    58  47  66 E9        30.23F
NEW BEDFORD    CLOUDY    60  46  59 NE7       30.23S
$$

MAZALL-032000-
CAPE COD AND THE ISLANDS

CITY           SKY/WX    TMP DP  RH WIND       PRES   REMARKS
FALMOUTH       MOSUNNY   57  45  62 NE14      30.24F
HYANNIS        MOSUNNY   57  45  64 NE12      30.23F
CHATHAM        CLOUDY    53  44  71 NE14      30.25F
PROVINCETOWN   MOSUNNY   55  45  67 E9        30.26F
NANTUCKET      PTSUNNY   57  44  62 NE15G23   30.24S
MARTHAS VNYRD  PTSUNNY   60  46  59 NE13      30.24S
$$

MAZALL-032000-
CENTRAL AND WESTERN MASSACHUSETTS

CITY           SKY/WX    TMP DP  RH WIND       PRES   REMARKS
WORCESTER      MOSUNNY   63  45  51 VRB3      30.22S
FITCHBURG      PTSUNNY   63  46  54 S7        30.22S
ORANGE         SUNNY     67  43  41 VRB6      30.19F
SPRINGFIELD    SUNNY     67  44  42 VRB2      30.19S
WESTFIELD      SUNNY     69  43  38 VRB7      30.19F
NORTH ADAMS    SUNNY     68  47  46 VRB7      30.19F
PITTSFIELD     SUNNY     68  46  45 VRB6      30.18S
$$

RIZALL-032000-
RHODE ISLAND

CITY           SKY/WX    TMP DP  RH WIND       PRES   REMARKS
PROVIDENCE     PTSUNNY   62  48  60 SE6       30.23S
NEWPORT        PTSUNNY   60  49  66 VRB6      30.23R
BLOCK ISLAND   MOSUNNY   57  48  72 E13       30.24S
SMITHFIELD     PTSUNNY   61  28  29 NE6       30.23R
WESTERLY       MOSUNNY   58  49  72 SE9G18    30.23F
$$

CTZALL-032000-
CONNECTICUT

CITY           SKY/WX    TMP DP  RH WIND       PRES   REMARKS
BRADLEY INTL   PTSUNNY   69  43  38 NE8       30.19F
HARTFORD       SUNNY     67  48  50 SE7       30.20F
BRIDGEPORT     MOSUNNY  N/A N/A N/A MISG      30.21F
DANBURY        SUNNY     68  48  48 N3        30.20F
GROTON         SUNNY     59  50  72 SE10      30.23R
NEW HAVEN      MOSUNNY   62  51  67 S8        30.21F
CHESTER        NOT AVBL
MERIDEN        SUNNY     70  43  37 N6        30.20F
WILLIMANTIC    MOSUNNY   68  45  43 N5        30.20F
OXFORD         MOSUNNY   66  45  45 VRB6      30.21F
$$

MEZ002-015-021-024-NHZ003-005-008-011-012-014-VTZ005-008-032000-
NORTHERN NEW ENGLAND

CITY           SKY/WX    TMP DP  RH WIND       PRES   REMARKS
PORTLAND ME    PTSUNNY   59  48  67 E8        30.24S
BANGOR ME      CLOUDY    52  42  69 N9        30.25S
CONCORD NH     MOSUNNY   67  43  41 E6        30.20F
MANCHESTER NH  PTSUNNY   63  45  51 NE8       30.20F
NASHUA NH      MOSUNNY   65  47  52 E8        30.22F
PORTSMOUTH NH  PTSUNNY   58  46  64 SE12      30.22F
JAFFREY NH     SUNNY     65  42  43 NE5       30.20S
KEENE NH       SUNNY     64  43  45 N7        30.20S
BURLINGTON VT  MOSUNNY   62  43  49 NW6       30.25F
MT. WASHINGTON FOG       37  37 100 N3          N/A  VSB 1/8
$$

NYZ052-076-032000-
EASTERN NEW YORK

CITY           SKY/WX    TMP DP  RH WIND       PRES   REMARKS
ALBANY         MOSUNNY   68  43  40 N7        30.21F
NEW YORK CITY  PTSUNNY   67  48  50 NE9       30.19F
$$

ANZALL-032000-
MARINE OBSERVATIONS

STATION/POSITION TIME  TEMP    WIND        PRES    VSBY  WAVE
                       AIR SEA DIR/SP/G                  HT/PER
                 (UTC) (F)     (DEG/KT/KT) (MB)    (MI)  (FT/S)
BOSTON BUOY      1850   50 51  120/  6/  8   N/A           3/ 9
BUZZARDS BAY     1900           60/ 11/ 12   N/A
NANTUCKET SOUND  1850   53 56   50/ 16/ 17   N/A           2/ 3
MASS BAY-STELLWA 1804   49 49  110/  6/  8   N/A    1 7/8  3/ 8
ISLE OF SHOALS   1900   49     150/  8/  9   N/A
S OF BLOCK IS    1808      57                N/A           3/ 8
$$

......................KEY.........................
  SKY/WX - SKY CONDITION/PRESENT WEATHER
  TMP    - TEMPERATURE IN FAHRENHEIT
  DWPT   - DEWPOINT IN FAHRENHEIT
  RH     - RELATIVE HUMIDITY IN PERCENT
  WIND   - DIRECTION AND SPEED IN MPH
  PRES   - MEAN SEA LEVEL PRESSURE IN INCHES OF HG
  WCI    - WIND CHILL INDEX
  VSB    - VISIBILITY IN MILES
  HX     - HEAT INDEX
  TC     - TEMPERATURE IN CELSIUS
  VRB    - VARIABLE WIND DIRECTION
  N/A    - NOT AVAILABLE



USA.gov is the U.S. government's official web portal to all federal, state and local government web resources and services.